Theta_e
291 285 279 281 284 285 284 282 282 283 285 283 283 283 286 289 288 287 288 288 289 289 291 292 293 291 290 289 288 288 288 288 288 286 286 286 286 287 287 288 289 289 289 290
288 281 284 286 286 284 284 282 280 283 285 284 283 282 285 287 289 289 289 289 288 289 290 291 291 291 290 290 289 288 288 288 288 288 287 288 287 287 288 289 289 290 290 290
283 284 286 285 284 282 282 279 278 279 283 284 282 282 281 284 288 290 291 292 291 289 288 289 289 289 290 289 289 290 289 289 289 289 290 289 288 287 287 287 287 289 290 289
283 284 283 282 282 282 279 283 283 282 280 277 283 276 284 282 284 288 290 291 291 290 290 289 289 288 288 291 291 291 291 290 289 290 288 287 286 285 286 286 287 288 289 289
280 280 279 282 281 283 282 283 281 281 280 277 281 277 287 281 281 284 287 291 292 291 290 288 288 289 289 289 291 292 292 293 292 290 289 287 285 285 286 286 287 288 288 289
280 282 281 281 283 283 285 282 282 280 280 279 275 275 280 282 283 284 287 289 293 293 290 290 289 288 288 289 289 289 290 291 292 290 289 287 286 286 285 286 287 287 287 288
279 278 280 281 280 283 282 280 280 277 276 277 277 274 281 286 288 287 286 287 289 294 292 289 287 287 287 288 288 288 288 288 289 289 288 288 288 287 286 286 287 287 287 287
279 279 278 280 277 276 278 277 277 268 273 275 275 274 283 287 288 285 286 286 287 290 294 292 289 288 287 287 288 288 288 288 288 289 288 288 288 288 288 288 288 288 288 288
279 278 277 278 279 278 278 277 276 272 263 268 276 281 286 286 286 287 286 284 286 288 289 291 290 289 288 288 288 289 288 288 288 288 288 288 288 288 288 288 288 288 289 289
279 276 277 276 278 278 276 277 275 275 268 268 276 276 279 283 286 287 287 288 288 287 288 289 289 289 289 289 289 289 289 289 289 288 288 288 288 288 288 288 288 288 288 289
280 279 276 276 275 277 273 275 275 275 275 270 270 277 285 283 285 284 286 288 288 288 289 289 289 290 290 290 289 289 289 289 289 289 289 288 288 288 288 288 288 288 289 289
280 282 275 278 276 277 276 276 278 273 272 273 273 272 287 285 284 283 285 287 289 290 290 290 291 290 289 290 290 289 289 289 289 290 289 288 288 288 287 288 288 288 288 288
282 278 273 278 275 275 274 276 277 274 274 270 269 275 285 285 286 287 287 290 289 290 290 291 291 290 290 290 290 290 290 290 290 290 289 289 288 288 287 288 288 288 288 288
285 279 276 278 281 278 274 274 276 276 270 275 276 279 284 287 288 288 289 290 291 291 290 290 289 289 290 291 291 289 290 291 291 290 289 288 288 288 288 288 288 288 288 287
280 271 276 278 280 279 279 278 278 273 276 272 279 280 284 286 287 288 289 288 288 288 287 286 286 287 289 289 289 291 291 290 290 290 289 289 289 289 289 289 288 288 288 288
278 273 272 272 276 278 277 279 279 280 280 280 280 279 286 288 289 287 286 287 286 286 286 286 286 287 287 288 288 288 289 290 291 290 289 290 290 289 288 288 288 287 287 287
277 275 272 271 272 272 272 276 279 279 278 279 276 282 286 286 286 287 283 285 286 285 285 284 286 287 287 288 289 288 289 290 288 288 290 290 289 288 287 287 287 287 286 286
278 277 278 274 272 267 278 282 281 280 281 282 282 284 285 286 287 284 284 284 284 283 283 285 287 287 287 287 287 288 287 287 286 285 287 288 287 287 287 286 286 286 286 286
284 281 277 274 270 275 279 281 280 276 277 283 283 284 284 285 284 284 285 287 288 283 285 286 288 286 286 285 287 285 284 284 283 285 286 286 285 286 285 285 285 286 285 285
277 280 277 274 271 266 276 281 282 283 274 282 282 282 283 283 277 281 287 288 288 288 288 287 289 286 285 286 286 285 285 283 283 284 285 285 285 285 285 285 285 285 285 285
265 268 272 273 271 272 279 281 282 272 274 282 283 283 283 280 283 286 287 286 288 287 287 287 284 283 285 286 286 284 285 283 286 285 284 284 284 284 285 284 284 283 282 282
272 270 270 270 269 267 280 279 274 279 282 282 282 281 280 282 283 284 285 285 285 285 287 287 287 287 288 288 284 282 283 285 284 282 283 283 283 283 283 283 283 282 282 281
270 275 273 274 274 279 279 278 280 280 279 279 279 281 282 281 280 281 281 282 284 285 285 287 286 287 286 285 284 283 283 284 282 280 281 282 281 283 282 282 282 280 280 279
275 277 273 273 275 275 277 279 279 279 279 281 282 282 282 280 281 281 281 282 283 283 283 285 283 284 284 285 284 280 282 283 278 279 279 279 279 279 278 280 280 279 278 278
275 275 273 272 274 275 276 277 278 278 279 279 280 280 280 280 281 281 281 282 282 283 284 285 284 283 283 284 283 283 283 283 279 277 278 277 277 275 274 275 277 278 278 279
275 273 270 269 274 274 274 277 279 278 278 279 279 279 280 281 281 281 281 282 282 282 283 283 283 283 284 284 283 283 284 284 281 279 277 278 276 274 275 275 273 280 280 281
Wind_Speed
5 7 5 5 6 6 7 6 8 4 4 8 6 9 9 11 11 10 9 8 9 9 9 12 12 11 10 10 10 10 8 7 5 4 3 2 3 4 4 4 5 4 3 2
3 4 4 7 6 6 6 9 6 5 2 6 8 17 13 9 11 13 10 9 9 9 9 12 12 13 13 12 12 11 11 11 9 6 5 4 4 4 4 4 5 6 6 5
6 2 5 4 5 9 4 4 5 5 11 1 9 5 1 2 5 9 11 9 10 11 10 9 13 13 12 12 12 11 11 10 9 9 6 4 3 3 3 4 4 5 6 6
4 1 4 5 2 5 4 4 8 8 8 4 7 6 3 3 7 9 11 12 12 10 10 12 14 13 14 15 13 14 12 12 11 10 6 6 5 7 5 5 5 6 7 7
2 1 3 2 1 3 4 5 4 4 6 3 6 3 8 2 6 12 14 14 14 12 12 13 14 15 15 14 13 12 14 14 13 12 10 5 6 5 4 4 8 8 8 8
3 1 4 6 3 3 9 7 6 3 1 4 3 4 9 3 4 2 6 17 16 14 11 11 11 11 12 11 13 12 14 14 14 12 14 13 10 9 6 7 8 7 6 7
3 3 2 2 4 3 4 4 4 6 5 5 5 3 13 7 7 6 5 6 13 13 13 11 11 10 12 14 13 12 14 17 16 16 16 17 16 14 14 9 8 8 8 7
1 5 0 1 2 1 3 2 4 4 3 6 2 7 8 1 4 1 4 1 1 11 12 14 14 13 13 15 16 16 16 18 17 17 19 16 17 12 12 12 9 9 9 10
4 3 3 3 2 3 1 1 1 2 2 3 5 8 13 3 3 6 3 2 7 8 9 10 11 13 13 14 17 19 20 19 20 20 17 18 17 18 15 15 11 11 12 10
0 5 0 2 2 1 1 1 0 3 4 5 5 3 8 6 9 10 10 7 8 6 7 7 8 10 13 16 15 16 18 22 20 21 19 18 19 19 18 14 17 16 14 15
1 3 1 2 7 7 1 2 1 1 3 4 3 7 6 3 2 7 8 7 7 5 7 8 8 9 11 12 14 18 19 21 20 19 19 19 19 19 17 17 18 18 16 16
2 3 4 5 4 3 3 2 6 5 7 4 3 9 15 8 5 5 8 9 10 8 7 8 10 10 10 12 13 16 17 17 19 19 17 18 18 17 19 20 20 18 18 17
2 2 6 5 2 4 3 3 2 4 1 7 5 11 3 9 14 13 16 20 12 13 7 8 8 8 9 9 11 12 14 16 17 16 16 17 19 19 21 21 21 19 19 19
1 2 8 11 12 2 3 5 5 7 4 11 16 35 16 24 25 17 18 20 22 21 17 10 8 6 6 7 7 7 9 11 13 13 15 17 18 21 21 21 20 20 20 20
3 5 6 9 12 10 14 12 10 15 14 12 32 30 27 27 26 25 23 22 20 17 10 7 6 6 6 7 7 7 8 7 9 12 13 17 18 18 20 19 20 19 21 21
1 5 2 6 11 17 20 10 17 21 22 24 26 35 22 27 20 15 15 16 16 13 9 7 7 8 7 8 8 7 8 8 7 10 13 15 15 17 18 18 18 18 19 19
3 2 1 7 2 8 11 14 20 7 2 9 13 21 20 19 18 18 9 9 10 9 6 6 5 7 7 7 7 8 9 9 7 8 12 14 12 13 15 16 16 18 19 18
5 2 2 8 5 8 8 7 6 11 8 9 15 20 14 16 16 7 7 7 9 6 6 7 10 7 8 7 8 7 7 9 8 9 12 10 10 12 13 12 16 17 15 17
11 6 5 5 7 16 17 9 8 5 13 5 18 18 12 20 18 9 4 17 19 9 8 11 13 9 7 8 10 7 7 7 7 13 13 10 9 12 11 12 14 14 13 15
1 3 5 2 7 10 3 6 9 18 24 14 17 22 24 23 17 15 17 22 22 18 18 16 19 8 7 10 8 8 12 8 11 13 12 11 10 11 12 13 12 11 11 14
3 2 10 13 11 10 4 17 10 12 17 27 24 25 23 21 18 29 27 22 20 18 18 14 9 9 12 14 12 10 11 13 14 10 9 11 11 12 12 11 9 9 10 9
4 3 5 4 8 13 17 15 10 16 29 26 23 26 29 31 29 21 21 24 22 23 20 19 15 19 19 19 11 11 14 17 10 7 11 12 11 10 8 10 9 9 9 10
6 6 3 2 6 19 23 22 25 26 30 33 33 26 15 24 27 29 29 29 27 25 21 17 19 16 13 13 12 13 17 14 12 8 11 13 10 11 10 10 11 8 11 11
2 6 7 13 7 18 21 26 25 29 28 28 22 29 30 30 27 24 22 23 22 21 21 16 10 19 19 15 13 9 13 13 9 11 11 11 11 10 8 7 7 9 10 10
6 6 9 18 20 19 19 25 28 28 28 28 28 26 29 30 26 25 21 20 20 20 19 15 18 18 20 16 13 14 14 15 11 10 10 10 8 8 5 6 7 9 10 13
10 16 11 16 22 21 25 30 31 31 29 25 27 29 27 24 25 22 18 17 16 17 18 19 19 20 19 18 17 17 18 15 13 11 9 9 7 5 5 5 1 10 11 17
Wind_Direction
351 41 46 16 6 320 278 273 296 6 95 319 272 266 262 183 193 220 221 220 209 214 209 186 197 202 206 209 208 209 202 198 183 178 171 186 201 194 195 193 174 171 187 175
3 56 20 318 274 294 292 315 12 293 100 305 299 292 264 218 203 203 217 225 212 200 198 175 180 193 204 210 210 209 206 196 199 192 206 184 177 197 183 170 187 192 180 196
59 26 324 318 336 353 61 15 3 300 310 300 301 272 279 238 170 200 221 224 210 198 196 188 185 191 195 208 211 217 219 214 210 215 212 212 196 165 173 183 189 200 191 198
65 22 318 311 75 349 318 25 323 325 355 333 9 283 297 172 230 206 220 221 223 215 200 187 184 190 196 203 199 206 211 216 218 221 234 219 219 205 198 186 183 188 194 197
261 306 335 294 47 330 285 344 295 300 323 52 340 56 260 104 240 234 222 221 222 217 202 200 202 198 194 192 201 203 207 208 206 203 221 221 226 219 215 206 190 189 195 194
83 2 334 356 311 246 299 292 200 231 225 7 234 98 286 209 206 163 200 215 213 211 215 210 205 194 200 197 195 197 203 213 211 210 206 201 210 228 232 208 198 197 192 206
151 118 86 328 302 224 275 316 335 351 5 226 99 343 247 282 277 224 243 221 201 205 204 206 202 204 203 202 202 201 204 213 209 211 213 215 213 207 220 214 198 193 202 201
249 321 21 319 54 277 355 30 134 288 308 289 7 248 260 290 316 158 356 180 260 201 207 205 204 205 206 204 201 205 215 218 215 216 220 218 218 222 217 213 203 206 206 210
344 221 140 46 335 358 345 357 320 99 107 62 247 284 305 356 31 357 226 218 257 261 216 208 208 209 210 215 218 211 207 215 216 216 216 218 217 217 223 219 211 204 207 206
113 300 291 120 235 107 307 322 57 344 324 286 261 279 239 340 5 357 355 318 285 229 250 243 222 219 217 220 219 217 220 221 218 218 216 216 218 218 217 217 220 215 208 207
77 124 237 139 203 188 85 195 352 11 170 218 316 265 222 10 349 312 314 330 326 330 228 233 236 228 226 224 217 223 222 220 223 223 221 219 219 217 217 218 220 217 211 208
4 165 253 220 58 52 81 120 165 135 274 250 194 262 285 283 314 269 305 290 286 249 250 234 223 221 223 224 227 225 229 227 229 227 224 227 227 221 219 220 221 217 216 213
321 298 332 315 55 12 136 175 237 100 149 187 240 255 287 316 309 300 301 298 306 322 290 270 263 242 230 231 232 231 232 232 234 230 225 225 227 224 225 226 223 218 216 216
38 244 187 256 270 3 170 200 203 170 200 263 241 278 267 275 280 291 289 306 306 304 302 298 294 291 276 262 257 244 239 237 240 235 231 231 229 229 229 228 224 220 217 217
132 220 236 254 272 281 268 269 244 212 234 231 272 265 280 282 284 284 290 290 294 296 309 301 320 336 332 327 309 281 265 256 245 243 236 234 234 234 236 235 230 226 219 217
42 268 358 285 253 263 283 272 263 257 251 256 261 271 272 278 284 291 282 283 280 286 278 315 343 345 328 312 306 297 285 273 253 244 243 242 238 236 236 235 233 230 227 221
168 195 52 270 29 329 292 230 242 253 236 226 255 270 288 299 301 297 312 297 293 295 344 355 319 295 286 290 292 295 290 289 286 266 257 254 249 243 240 237 232 230 227 222
189 181 221 282 24 264 256 30 298 282 258 273 277 287 298 301 312 334 323 357 7 352 326 314 310 279 272 271 274 266 282 288 283 268 266 262 248 248 246 236 233 232 226 222
239 227 252 244 221 277 299 296 307 354 298 282 282 313 348 335 323 301 7 351 336 299 290 296 302 269 267 274 281 292 289 277 274 283 284 267 246 253 251 241 237 232 227 224
350 231 232 202 258 263 44 355 333 332 293 24 348 329 323 324 315 305 334 323 315 321 311 302 296 278 286 283 284 296 292 281 279 276 271 267 257 251 252 247 243 233 223 225
127 157 220 243 259 268 0 351 315 285 297 328 316 308 308 304 295 301 305 315 316 307 306 325 321 308 304 298 286 264 272 267 273 270 269 270 258 252 250 251 241 220 211 198
176 203 220 196 232 257 7 345 339 302 303 305 309 304 300 295 302 320 313 309 310 310 307 301 294 298 289 290 276 261 269 272 271 261 267 268 264 254 244 231 235 213 204 194
274 195 308 270 259 325 323 307 303 296 289 292 294 300 320 314 314 311 306 303 301 298 294 286 284 276 277 275 265 272 269 278 268 252 263 270 266 256 243 229 219 194 182 176
287 359 279 303 304 299 291 293 292 291 291 296 301 302 302 300 297 293 290 291 292 293 291 291 294 298 284 274 275 237 259 272 239 244 250 260 256 246 230 227 213 198 190 184
254 295 265 278 285 286 287 286 289 295 294 294 292 292 293 289 290 289 295 294 295 295 296 291 286 283 285 283 277 280 277 286 260 248 255 256 230 224 212 206 200 208 209 192
232 255 255 265 277 284 286 290 298 300 297 296 294 292 289 290 290 297 298 298 300 302 303 299 290 286 284 286 281 281 279 280 273 264 265 258 237 201 202 203 163 226 206 195